Location: La Oliva
(42.2466°N, 2.9955°E)
Time: 06:42:53
(UTC+00:00)

BREEZE M DEB (TANK) - Pass Details

Date: 22 April 2021
Orbit: 273 x 14498 km, 49.6° (Epoch: 07 May)

Event Time Altitude Azimuth Distance (km) Brightness Sun altitude
Rises 20:18:03 0° 254° (WSW) 7,389 8.6 -17.4°
Reaches altitude 10° 20:25:09 10° 259° (WSW) 4,492 7.5 -18.4°
Maximum altitude 20:33:49 48° 333° (NNW) 934 3.8 -19.7°
Enters shadow 20:36:24 14° 47° (NE) 1,402 4.3 -20.0°
